#timestamp,LO_Frequency,Hit,StdDev 
1580562435.3,286046987.6,P
1580562455.1,286046989.6,P
1580562475.9,286046987.4,P
1580562495.7,286046990.0,Y
1580562515.5,286047000.5,P
1580562535.4,286046999.4,N
1580562555.2,286046996.5,N
1580562575.0,286046999.6,N
1580562575.9,286046999.6,N
1580562595.8,286046996.8,N
1580562615.6,286046997.2,N
1580562635.5,286046998.0,N
1580562655.3,286046997.6,N
1580562675.1,286046997.9,N
1580562695.9,286046995.3,N
1580562715.7,286046995.4,N
1580562735.5,286046995.9,N
1580562755.4,286046995.9,N
1580562775.2,286046996.3,N
1580562795.1,286046996.4,N
1580562796.0,286046996.4,N
1580562815.8,286046993.9,N
1580562835.6,286046994.1,N
1580562855.5,286046993.5,N
1580562875.3,286046994.3,N
1580562895.1,286046994.3,N
1580562915.9,286046991.8,Y
1580562935.7,286046995.4,P
1580562955.6,286046995.2,P
1580562975.4,286046995.7,P
1580562995.3,286046996.4,Y
1580563015.1,286046999.0,P
1580563016.0,286046999.0,N
1580563035.8,286046999.2,N
1580563055.7,286046999.1,N
1580563075.5,286046997.2,N
1580563095.3,286046997.4,N
1580563115.2,286046997.2,N
1580563135.0,286046997.2,N
1580563135.9,286046997.2,N
1580563155.8,286046997.9,N
1580563175.6,286046995.8,Y
1580563195.4,286046996.8,P
1580563215.3,286046997.2,P
1580563235.1,286046997.2,P
1580563255.9,286046997.4,Y
1580563275.7,286047001.2,P
1580563295.5,286046998.7,N
1580563315.4,286046998.6,N
1580563335.2,286046999.1,N
1580563355.1,286046998.1,N
1580563356.0,286046998.1,N
1580563375.8,286046998.3,N
1580563395.6,286046998.4,N
1580563415.5,286046999.2,N
1580563435.3,286046998.5,N
1580563455.1,286046998.3,N
1580563475.9,286046999.2,N
1580563495.7,286046999.6,N
1580563515.6,286046998.7,N
1580563535.4,286046999.1,N
1580563555.2,286046999.5,N
1580563575.1,286046999.2,N
1580563576.0,286046999.2,N
1580563595.8,286046997.0,Y
1580563615.7,286046999.1,P
1580563635.5,286046999.6,P
1580563655.3,286046996.8,P
1580563675.2,286046999.6,N
1580563695.9,286046997.3,N
1580563715.7,286046997.8,N
1580563735.6,286046997.6,N
1580563755.4,286046994.9,Y
1580563775.3,286046997.4,P
1580563795.1,286046999.5,N
1580563796.0,286046999.5,N
1580563815.8,286046999.5,N
1580563835.7,286046999.5,N
1580563855.5,286046996.7,Y
1580563875.3,286046999.1,P
1580563895.2,286046998.7,P
1580563915.0,286046999.3,P
1580563915.9,286046999.3,Y
1580563935.8,286046998.8,P
1580563955.6,286046998.2,P
1580563975.4,286046998.6,P
1580563995.3,286047001.2,Y
1580564015.1,286047000.7,P
1580564035.9,286046998.3,N
1580564055.7,286046998.2,N
1580564075.5,286047001.0,N
1580564095.4,286046998.1,N
1580564115.2,286047000.3,N
1580564135.0,286046998.8,N
1580564135.9,286046998.8,N
1580564155.8,286046999.0,N
1580564175.6,286046998.9,N
1580564195.5,286046999.3,N
1580564215.3,286046998.3,N
1580564235.1,286046998.4,N
1580564255.9,286046999.4,N
1580564275.7,286046998.9,N
1580564295.5,286046998.5,N
1580564315.4,286046998.7,N
1580564335.2,286046999.3,N
1580564355.1,286046998.7,N
1580564356.0,286046998.7,N
1580564375.8,286046999.5,N
1580564395.6,286046998.7,N
1580564415.5,286046998.3,N
1580564435.3,286046998.6,N
1580564455.1,286047001.2,N
1580564475.9,286047000.9,N
1580564495.7,286047000.8,N
1580564515.6,286046998.9,N
1580564535.4,286046998.9,N
1580564555.2,286046998.5,N
1580564575.1,286046999.1,N
1580564576.0,286046999.1,N
1580564595.8,286046998.8,N
1580564615.7,286047001.0,N
1580564635.5,286047001.0,N
1580564655.3,286046998.3,N
1580564675.2,286047000.7,N
1580564695.9,286047001.1,N
1580564715.7,286047000.4,N
1580564735.6,286047001.2,N
1580564755.4,286046998.4,N
1580564775.3,286046998.5,N
1580564795.1,286046998.1,N
1580564796.0,286046998.1,N
1580564815.8,286046998.8,N
1580564835.7,286046998.3,N
1580564855.5,286046998.7,N
1580564875.3,286046998.4,N
1580564895.2,286046998.6,N
1580564915.0,286047001.2,N
1580564915.9,286047001.2,N
1580564935.8,286046998.5,N
1580564955.6,286046998.6,N
1580564975.4,286047000.8,N
1580564995.3,286046998.2,N
1580565015.1,286047001.2,N
1580565035.8,286046998.5,N
1580565055.7,286046998.2,N
1580565075.5,286047000.8,N
1580565095.4,286047000.7,N
1580565115.2,286047001.0,N
1580565135.0,286047001.1,N
1580565135.9,286047001.1,N
1580565155